Theta_e
319 318 319 318 317 319 319 318 319 318 319 319 318 321 319 321 324 326 327 327 327 327 326 325 325 325 324 324 321 320 320 320 320 320 320 320 320 320 319 319 319 318 318 317
314 318 318 318 317 318 319 319 320 318 317 318 317 320 316 319 320 323 325 327 327 327 326 325 325 325 324 322 320 320 320 320 320 321 320 320 320 320 320 319 318 318 317 316
316 317 318 319 317 318 318 319 319 319 317 316 316 316 315 321 323 322 321 326 328 327 325 325 325 324 321 320 320 320 319 320 320 321 320 320 320 320 319 318 317 316 314 311
315 316 319 318 319 317 318 317 317 316 315 319 314 317 313 323 321 321 322 325 327 327 325 325 322 321 320 320 320 319 319 320 322 320 320 320 320 319 318 317 313 311 310 310
318 318 318 319 320 317 318 315 315 315 313 315 316 314 312 323 324 323 321 324 324 323 323 322 320 320 320 320 319 319 320 321 321 320 320 319 318 317 314 311 311 310 310 309
317 317 318 317 316 316 314 317 314 313 313 317 317 317 317 324 323 322 322 324 324 321 320 320 320 320 319 318 320 320 320 321 321 319 318 317 314 312 311 310 310 309 308 308
319 319 316 316 316 315 314 314 313 314 316 316 317 319 317 320 322 321 321 324 324 322 322 321 320 319 318 320 319 320 320 319 319 317 314 313 311 310 309 308 308 307 307 306
318 319 316 315 315 313 314 314 316 315 315 312 317 323 324 322 323 324 324 324 321 322 322 321 318 319 319 319 320 320 319 318 316 314 312 311 310 308 308 307 307 305 302 303
316 320 316 315 315 316 318 316 313 316 317 320 319 320 321 323 322 322 323 321 322 322 321 318 318 318 319 320 319 318 316 315 314 312 311 310 308 308 307 306 304 302 302 303
317 318 318 315 314 313 318 317 322 318 324 325 319 320 321 324 323 320 319 321 322 321 317 317 318 319 319 319 317 316 315 313 312 311 309 308 307 306 304 303 303 303 303 303
316 317 319 316 314 313 317 317 318 318 317 316 316 319 316 321 321 320 320 321 321 317 317 318 320 319 319 316 316 315 314 312 310 308 307 306 303 301 302 302 302 303 304 304
315 313 317 316 315 314 315 315 318 319 318 314 314 318 317 316 319 320 321 322 320 317 318 319 319 318 316 316 315 314 312 309 307 306 303 301 300 301 302 303 303 304 304 304
315 313 315 315 312 316 316 315 315 313 315 319 319 321 317 319 319 320 320 318 318 319 319 319 318 317 316 314 313 311 309 307 306 302 300 300 301 301 301 302 303 304 304 304
316 312 316 320 315 314 317 317 316 315 316 316 319 320 316 321 317 316 317 317 318 319 319 318 317 316 314 312 311 309 307 305 301 300 299 301 301 301 301 301 302 303 304 305
315 317 316 316 317 317 318 318 316 317 315 317 316 317 315 316 315 316 317 318 318 318 318 317 315 313 312 311 309 307 306 302 299 299 300 300 300 301 301 301 301 303 304 305
311 316 317 318 320 319 319 319 319 318 317 316 315 317 317 316 317 317 317 318 317 318 316 315 313 311 311 309 306 305 301 299 298 299 299 300 301 301 301 301 302 303 304 304
315 316 316 318 320 319 318 318 318 319 320 319 318 316 315 314 315 316 317 317 317 316 314 313 312 310 308 306 303 300 299 298 298 299 300 301 301 301 301 301 302 302 303 303
315 315 316 320 320 322 317 320 320 321 320 316 316 315 314 315 316 317 317 317 316 315 313 312 310 308 306 303 301 299 297 298 298 299 300 300 301 301 301 301 302 302 302 302
314 318 319 322 320 320 322 322 319 319 319 318 315 315 315 316 317 317 317 316 314 313 311 310 308 306 304 301 298 297 297 298 299 299 299 300 300 300 301 301 302 302 302 303
317 315 320 316 320 321 317 322 321 317 319 317 315 314 314 315 313 311 315 314 314 311 310 309 307 305 301 298 298 297 296 298 298 299 299 299 300 300 301 301 302 302 303 303
322 320 318 316 318 318 315 321 320 322 321 317 316 315 314 312 312 315 315 314 312 310 309 308 305 300 298 298 298 296 297 297 298 298 299 300 300 299 298 300 301 301 302 303
323 324 322 319 319 322 317 321 322 318 318 319 315 315 314 315 316 316 314 312 310 309 308 306 302 299 298 298 297 296 297 297 298 298 299 299 299 299 299 299 299 301 303 303
323 322 323 320 320 317 319 318 320 320 319 315 315 314 314 315 316 314 313 311 310 308 307 303 300 298 297 297 298 297 298 298 298 298 299 299 299 298 297 301 300 300 300 300
317 319 321 320 320 318 319 319 319 319 316 316 315 314 314 315 315 314 312 311 309 308 305 301 298 297 298 298 298 297 297 297 297 297 297 297 297 298 298 298 299 299 299 298
317 318 319 319 319 318 318 318 316 316 316 315 314 314 315 314 314 313 312 310 309 307 302 299 298 298 296 296 296 296 296 297 297 297 297 297 298 298 298 298 297 297 297 297
317 317 317 319 319 316 319 317 317 317 315 314 314 314 314 314 314 313 312 310 309 305 299 298 296 296 296 296 296 297 297 297 297 297 297 297 297 297 297 297 297 297 296 296
Wind_Speed
3 5 3 5 5 3 4 3 0 3 0 3 5 3 8 17 17 20 24 25 25 22 14 12 12 11 11 9 9 11 10 10 12 13 14 15 19 21 23 24 27 30 32 35
5 3 6 5 4 3 2 3 0 3 4 4 5 2 3 8 13 28 30 28 27 22 16 13 12 12 11 10 12 13 12 14 16 16 16 18 21 24 27 28 32 34 38 39
5 3 3 4 4 6 2 5 3 3 4 4 3 5 3 1 2 6 21 30 25 21 16 14 14 13 10 11 12 12 15 18 18 16 17 20 23 27 30 33 38 41 43 46
3 4 3 3 3 4 3 3 2 2 3 2 3 4 4 4 7 1 10 23 23 17 15 14 12 10 10 10 11 14 17 18 14 16 19 21 26 31 34 39 45 47 48 50
5 1 2 2 3 4 4 3 3 2 4 3 3 3 7 4 3 2 8 17 12 12 12 11 10 10 9 9 13 14 14 11 13 16 18 24 30 36 43 46 50 53 54 54
4 1 3 6 3 2 7 5 7 5 3 1 3 5 5 4 5 3 5 12 10 12 10 10 9 8 9 11 6 6 7 8 11 16 24 31 38 44 49 51 53 56 55 53
2 2 3 3 4 3 6 6 3 3 4 5 3 2 8 5 6 8 10 15 10 9 9 9 9 10 8 4 6 6 7 13 20 26 32 37 43 46 50 52 53 51 50 47
4 4 5 3 6 7 3 7 5 5 3 4 2 5 5 3 7 9 10 11 9 8 7 7 7 3 3 4 7 10 16 21 28 34 40 44 48 50 50 49 45 43 39 33
5 4 1 3 3 6 4 3 4 7 3 2 3 6 7 2 2 5 11 10 7 6 6 6 3 2 2 6 11 17 23 28 34 41 48 52 50 48 44 41 38 37 34 35
7 2 1 2 6 7 4 7 3 3 2 3 4 4 5 5 8 7 9 11 9 6 7 6 2 1 5 10 16 22 29 36 44 49 50 49 46 41 36 35 34 33 34 34
6 4 4 1 4 8 2 1 6 5 4 5 1 5 6 10 11 10 16 12 8 4 6 3 2 3 9 16 23 30 38 45 49 49 47 44 38 35 32 32 32 32 33 32
5 6 4 6 4 1 3 6 6 5 5 2 4 6 3 7 5 5 4 10 7 7 6 5 1 8 15 23 30 38 44 47 47 46 42 37 33 31 30 29 30 31 32 31
8 1 3 6 5 2 3 4 4 5 3 6 5 6 2 5 1 2 10 9 9 8 5 1 8 15 21 28 35 41 44 45 43 38 35 33 31 30 29 30 31 30 30 29
9 3 7 9 7 5 4 4 5 5 4 4 6 5 6 1 4 7 11 9 8 5 3 7 12 19 25 32 37 42 42 40 36 34 32 30 31 29 30 30 29 29 28 28
5 6 4 2 4 5 4 5 6 5 4 5 5 6 7 3 6 9 9 7 6 4 5 10 15 21 28 35 39 39 38 34 33 31 30 30 29 28 29 28 28 27 26 25
1 4 3 3 3 4 3 6 7 6 4 5 4 5 1 7 12 8 7 6 4 2 6 11 18 25 32 36 36 35 33 31 29 29 28 27 27 28 28 28 27 26 24 24
6 6 3 3 4 4 4 8 5 3 2 4 5 7 7 5 9 6 4 4 5 4 8 15 23 28 31 32 33 31 30 28 28 27 25 25 26 27 27 27 25 25 24 24
3 6 3 4 4 4 4 2 5 8 2 1 4 6 9 12 10 7 4 4 5 5 11 18 23 26 28 30 29 27 26 25 25 25 22 23 25 26 26 26 25 25 25 26
3 3 3 5 4 3 3 4 6 5 2 1 7 9 13 12 7 6 7 5 5 8 13 18 22 25 26 26 25 25 25 24 23 23 21 22 23 24 24 24 25 25 27 27
6 3 4 3 5 7 6 5 9 8 1 7 9 12 13 9 1 2 7 4 4 8 14 19 23 23 23 23 23 25 25 24 23 21 20 20 21 22 25 26 27 28 29 30
3 4 4 3 2 5 5 6 8 6 6 21 16 15 14 5 4 9 10 3 4 11 15 19 21 20 20 21 24 26 23 23 20 18 18 21 23 24 25 24 27 28 28 28
2 1 1 2 3 5 7 7 7 6 6 25 19 15 10 8 11 14 9 3 6 11 16 19 18 18 19 21 21 22 23 20 19 20 21 23 24 25 24 25 27 29 31 32
4 5 3 5 4 6 6 2 9 17 28 22 18 13 9 14 14 11 7 3 7 12 16 17 17 17 17 17 20 24 24 23 22 24 24 23 24 25 26 21 28 28 29 29
3 10 3 3 7 9 7 5 17 22 28 20 15 13 11 13 13 10 6 3 7 11 15 15 16 16 18 21 26 30 30 29 28 29 26 22 22 24 23 24 26 28 29 30
5 11 4 2 4 3 4 15 22 22 19 18 15 13 12 10 11 7 5 3 7 11 12 15 20 24 27 27 26 24 23 20 20 22 23 21 17 17 21 23 24 25 26 26
5 5 4 5 16 7 14 24 24 22 21 18 15 15 11 6 8 7 5 4 6 8 12 17 21 21 21 19 17 19 16 16 23 21 22 20 19 19 18 18 19 19 20 21
Wind_Direction
23 61 229 221 195 149 146 118 312 280 199 141 206 185 172 189 197 203 207 199 197 196 186 187 202 219 228 234 261 273 281 293 297 303 299 302 311 315 317 318 318 319 319 319
26 226 223 198 138 156 134 116 3 293 355 141 181 206 62 164 207 216 211 206 202 201 203 207 219 234 245 251 267 269 292 296 289 282 289 300 305 309 311 314 313 313 313 312
163 236 121 148 122 100 58 133 158 183 349 45 61 338 346 289 318 260 228 216 202 204 213 219 233 239 237 265 267 278 289 285 281 277 287 294 298 304 307 308 308 307 307 307
212 291 142 129 152 128 154 188 120 96 80 213 42 259 294 318 314 310 206 199 198 215 233 229 226 233 254 262 258 279 280 285 273 276 287 297 304 305 306 305 305 304 304 304
246 125 124 142 199 141 204 91 63 71 90 73 1 79 270 320 293 179 155 172 185 202 204 208 225 239 249 256 276 280 285 274 270 285 297 303 304 304 305 305 305 306 306 305
216 302 168 197 84 92 143 79 47 49 77 26 218 137 273 207 214 201 189 180 176 179 194 221 243 247 259 279 275 286 292 277 290 303 307 308 309 309 309 309 308 308 308 307
336 285 312 140 103 52 75 62 346 352 8 222 178 92 241 234 232 194 195 192 191 191 219 242 262 246 272 270 301 311 302 310 314 313 312 311 312 311 311 312 312 311 309 308
151 308 181 184 176 181 152 146 152 205 209 261 295 230 253 249 280 200 194 183 185 212 242 248 237 244 260 288 310 314 317 317 315 315 315 316 318 317 315 313 311 311 314 307
147 267 252 193 139 129 177 152 160 103 16 40 270 297 317 215 220 216 198 197 202 230 244 210 188 216 261 309 318 321 321 319 319 319 322 321 319 317 315 317 320 320 316 315
204 106 270 145 108 42 141 150 78 21 149 261 298 282 235 241 230 229 233 216 218 246 199 170 165 272 317 324 326 327 324 323 325 325 321 320 321 322 324 322 322 322 318 315
138 119 273 125 196 168 99 124 57 116 131 169 228 264 216 210 214 210 227 213 224 209 158 148 154 307 328 331 329 328 328 328 325 322 323 325 328 329 328 330 330 328 326 324
187 136 167 195 316 98 143 173 144 130 222 178 149 274 295 253 276 228 244 216 201 159 153 155 321 334 332 332 331 332 328 325 326 328 331 334 336 335 336 335 337 337 333 329
183 246 76 357 353 335 185 175 124 109 82 188 142 257 326 350 91 140 153 155 142 138 128 22 332 336 339 335 334 328 327 329 332 338 341 342 344 344 341 342 342 337 336 334
132 123 158 190 201 148 160 168 146 132 129 173 218 272 292 268 103 129 133 130 121 101 33 345 341 344 337 335 330 330 332 336 342 347 347 349 349 348 347 345 341 341 342 342
127 158 149 194 172 134 149 168 169 179 172 155 244 198 277 231 162 146 123 107 100 58 1 349 345 340 335 333 333 332 338 344 348 348 352 352 350 350 351 348 347 348 349 349
39 166 143 150 169 136 203 240 207 204 202 241 251 247 172 133 136 129 111 110 96 59 1 351 344 338 337 335 334 341 345 350 350 353 352 351 353 356 356 357 357 358 359 1
142 136 110 220 152 107 311 229 199 142 104 139 181 215 159 119 121 114 112 130 112 62 6 348 343 339 336 337 344 346 349 349 352 352 353 357 360 1 4 7 7 9 12 15
165 111 101 140 114 220 246 349 143 120 106 205 100 120 142 137 118 91 94 121 94 31 358 345 339 338 342 346 348 350 350 350 353 356 360 5 7 10 12 17 19 23 26 29
188 127 108 145 184 295 134 186 151 135 189 250 137 138 134 138 115 62 97 107 69 14 348 342 341 346 349 351 354 357 359 1 1 6 6 12 14 19 25 31 33 37 42 45
0 23 116 189 164 202 226 179 158 109 293 200 150 151 164 150 82 232 156 119 37 352 348 346 351 352 355 2 2 5 1 7 9 11 13 23 29 41 45 45 45 47 52 55
337 335 161 167 161 283 240 146 129 107 236 169 167 160 146 161 191 151 160 145 5 356 352 355 0 5 8 8 10 11 13 15 17 25 35 51 56 55 51 49 52 51 51 56
184 45 330 10 87 253 184 128 160 194 144 162 160 157 156 147 142 149 154 106 11 360 360 7 11 13 14 12 16 21 27 30 40 53 61 65 62 52 49 51 52 50 52 53
198 187 175 198 225 293 222 218 195 158 151 155 152 156 159 153 154 153 140 80 15 6 12 18 17 22 23 28 38 46 48 53 61 57 58 58 55 44 34 52 53 55 53 57
253 170 186 145 243 245 216 147 155 161 154 151 156 152 160 152 154 154 136 63 17 18 27 26 31 43 52 59 71 66 56 53 51 48 42 33 32 40 53 56 53 50 49 49
211 148 200 227 303 311 189 164 155 149 151 149 147 146 138 140 157 158 138 77 30 34 49 56 71 78 81 75 71 65 55 59 48 31 35 43 51 49 48 50 50 45 44 43
204 177 159 217 206 192 181 167 165 161 157 152 145 138 136 155 159 159 138 73 40 66 84 94 95 88 83 73 61 61 57 44 28 33 36 44 49 47 44 45 49 51 48 42